Year,Month,Day,Hour,Minute,Value (Times are PST for temperature in C)
2010,08,14,00,00,21.60
2010,08,14,00,01,21.50
2010,08,14,00,02,21.50
2010,08,14,00,03,21.60
2010,08,14,00,04,21.60
2010,08,14,00,05,21.70
2010,08,14,00,06,21.70
2010,08,14,00,07,21.70
2010,08,14,00,08,21.50
2010,08,14,00,09,21.30
2010,08,14,00,10,21.20
2010,08,14,00,11,21.10
2010,08,14,00,12,21.00
2010,08,14,00,13,20.90
2010,08,14,00,14,20.80
2010,08,14,00,15,20.80
2010,08,14,00,16,20.70
2010,08,14,00,17,20.60
2010,08,14,00,18,20.50
2010,08,14,00,19,20.40
2010,08,14,00,20,20.30
2010,08,14,00,21,20.30
2010,08,14,00,22,20.20
2010,08,14,00,23,20.10
2010,08,14,00,24,20.10
2010,08,14,00,25,20.00
2010,08,14,00,26,19.90
2010,08,14,00,27,19.90
2010,08,14,00,28,19.90
2010,08,14,00,29,19.90
2010,08,14,00,30,19.90
2010,08,14,00,31,19.90
2010,08,14,00,32,19.90
2010,08,14,00,33,19.90
2010,08,14,00,34,19.90
2010,08,14,00,35,19.90
2010,08,14,00,36,19.90
2010,08,14,00,37,19.80
2010,08,14,00,38,19.70
2010,08,14,00,39,19.70
2010,08,14,00,40,19.60
2010,08,14,00,41,19.60
2010,08,14,00,42,19.60
2010,08,14,00,43,19.60
2010,08,14,00,44,19.70
2010,08,14,00,45,19.80
2010,08,14,00,46,19.90
2010,08,14,00,47,19.90
2010,08,14,00,48,19.90
2010,08,14,00,49,19.90
2010,08,14,00,50,19.90
2010,08,14,00,51,19.90
2010,08,14,00,52,20.00
2010,08,14,00,53,20.10
2010,08,14,00,54,20.10
2010,08,14,00,55,20.10
2010,08,14,00,56,20.10
2010,08,14,00,57,20.10
2010,08,14,00,58,20.10
2010,08,14,00,59,20.10
2010,08,14,01,00,20.00
2010,08,14,01,01,19.90
2010,08,14,01,02,19.90
2010,08,14,01,03,19.90
2010,08,14,01,04,19.90
2010,08,14,01,05,19.90
2010,08,14,01,06,19.90
2010,08,14,01,07,19.90
2010,08,14,01,08,19.90
2010,08,14,01,09,19.90
2010,08,14,01,10,20.10
2010,08,14,01,11,20.10
2010,08,14,01,12,20.10
2010,08,14,01,13,20.20
2010,08,14,01,14,20.20
2010,08,14,01,15,20.30
2010,08,14,01,16,20.30
2010,08,14,01,17,20.40
2010,08,14,01,18,20.50
2010,08,14,01,19,20.60
2010,08,14,01,20,20.70
2010,08,14,01,21,20.70
2010,08,14,01,22,20.70
2010,08,14,01,23,20.70
2010,08,14,01,24,20.60
2010,08,14,01,25,20.60
2010,08,14,01,26,20.60
2010,08,14,01,27,20.60
2010,08,14,01,28,20.60
2010,08,14,01,29,20.60
2010,08,14,01,30,20.70
2010,08,14,01,31,20.70
2010,08,14,01,32,20.80
2010,08,14,01,33,20.80
2010,08,14,01,34,20.80
2010,08,14,01,35,20.80
2010,08,14,01,36,20.80
2010,08,14,01,37,20.90
2010,08,14,01,38,20.90
2010,08,14,01,39,21.00
2010,08,14,01,40,21.00
2010,08,14,01,41,21.10
2010,08,14,01,42,21.20
2010,08,14,01,43,21.20
2010,08,14,01,44,21.20
2010,08,14,01,45,21.20
2010,08,14,01,46,21.10
2010,08,14,01,47,21.10
2010,08,14,01,48,21.00
2010,08,14,01,49,21.00
2010,08,14,01,50,20.90
2010,08,14,01,51,20.80
2010,08,14,01,52,20.70
2010,08,14,01,53,20.60
2010,08,14,01,54,20.60
2010,08,14,01,55,20.60
2010,08,14,01,56,20.60
2010,08,14,01,57,20.60
2010,08,14,01,58,20.50
2010,08,14,01,59,20.50
2010,08,14,02,00,20.50
2010,08,14,02,01,20.50
2010,08,14,02,02,20.50
2010,08,14,02,03,20.50
2010,08,14,02,04,20.50
2010,08,14,02,05,20.50
2010,08,14,02,06,20.60
2010,08,14,02,07,20.60
2010,08,14,02,08,20.70
2010,08,14,02,09,20.70
2010,08,14,02,10,20.80
2010,08,14,02,11,20.80
2010,08,14,02,12,20.80
2010,08,14,02,13,20.80
2010,08,14,02,14,20.70
2010,08,14,02,15,20.70
2010,08,14,02,16,20.70
2010,08,14,02,17,20.70
2010,08,14,02,18,20.70
2010,08,14,02,19,20.70
2010,08,14,02,20,20.70
2010,08,14,02,21,20.80
2010,08,14,02,22,20.80
2010,08,14,02,23,20.80
2010,08,14,02,24,20.80
2010,08,14,02,25,20.80
2010,08,14,02,26,20.80
2010,08,14,02,27,20.90
2010,08,14,02,28,20.90
2010,08,14,02,29,21.00
2010,08,14,02,30,21.00
2010,08,14,02,31,21.00
2010,08,14,02,32,21.10
2010,08,14,02,33,21.10
2010,08,14,02,34,21.10
2010,08,14,02,35,21.20
2010,08,14,02,36,21.20
2010,08,14,02,37,21.20
2010,08,14,02,38,21.30
2010,08,14,02,39,21.20
2010,08,14,02,40,21.20
2010,08,14,02,41,21.20
2010,08,14,02,42,21.20
2010,08,14,02,43,21.20
2010,08,14,02,44,21.10
2010,08,14,02,45,21.10
2010,08,14,02,46,21.10
2010,08,14,02,47,21.00
2010,08,14,02,48,21.00
2010,08,14,02,49,21.00
2010,08,14,02,50,21.00
2010,08,14,02,51,20.90
2010,08,14,02,52,20.90
2010,08,14,02,53,20.80
2010,08,14,02,54,20.80
2010,08,14,02,55,20.80
2010,08,14,02,56,20.70
2010,08,14,02,57,20.70
2010,08,14,02,58,20.60
2010,08,14,02,59,20.60
2010,08,14,03,00,20.60
2010,08,14,03,01,20.50
2010,08,14,03,02,20.50
2010,08,14,03,03,20.50
2010,08,14,03,04,20.50
2010,08,14,03,05,20.50
2010,08,14,03,06,20.50
2010,08,14,03,07,20.50
2010,08,14,03,08,20.50
2010,08,14,03,09,20.50
2010,08,14,03,10,20.50
2010,08,14,03,11,20.50
2010,08,14,03,12,20.50
2010,08,14,03,13,20.50
2010,08,14,03,14,20.50
2010,08,14,03,15,20.40
2010,08,14,03,16,20.40
2010,08,14,03,17,20.40
2010,08,14,03,18,20.40
2010,08,14,03,19,20.40
2010,08,14,03,20,20.50
2010,08,14,03,21,20.50
2010,08,14,03,22,20.50
2010,08,14,03,23,20.50
2010,08,14,03,24,20.50
2010,08,14,03,25,20.40
2010,08,14,03,26,20.40
2010,08,14,03,27,20.40
2010,08,14,03,28,20.30
2010,08,14,03,29,20.20
2010,08,14,03,30,20.20
2010,08,14,03,31,20.10
2010,08,14,03,32,19.90
2010,08,14,03,33,19.70
2010,08,14,03,34,19.40
2010,08,14,03,35,19.20
2010,08,14,03,36,19.00
2010,08,14,03,37,18.80
2010,08,14,03,38,18.70
2010,08,14,03,39,18.60
2010,08,14,03,40,18.50
2010,08,14,03,41,18.30
2010,08,14,03,42,18.20
2010,08,14,03,43,18.10
2010,08,14,03,44,18.00
2010,08,14,03,45,17.90
2010,08,14,03,46,17.90
2010,08,14,03,47,17.80
2010,08,14,03,48,17.80
2010,08,14,03,49,17.70
2010,08,14,03,50,17.70
2010,08,14,03,51,17.60
2010,08,14,03,52,17.60
2010,08,14,03,53,17.50
2010,08,14,03,54,17.50
2010,08,14,03,55,17.50
2010,08,14,03,56,17.50
2010,08,14,03,57,17.50
2010,08,14,03,58,17.50
2010,08,14,03,59,17.40
2010,08,14,04,00,17.40
2010,08,14,04,01,17.30
2010,08,14,04,02,17.30
2010,08,14,04,03,17.20
2010,08,14,04,04,17.10
2010,08,14,04,05,17.10
2010,08,14,04,06,17.00
2010,08,14,04,07,17.00
2010,08,14,04,08,16.90
2010,08,14,04,09,16.90
2010,08,14,04,10,16.90
2010,08,14,04,11,16.90
2010,08,14,04,12,16.90
2010,08,14,04,13,16.90
2010,08,14,04,14,16.90
2010,08,14,04,15,17.00
2010,08,14,04,16,17.00
2010,08,14,04,17,17.00
2010,08,14,04,18,17.10
2010,08,14,04,19,17.10
2010,08,14,04,20,17.10
2010,08,14,04,21,17.10
2010,08,14,04,22,17.10
2010,08,14,04,23,17.10
2010,08,14,04,24,17.10
2010,08,14,04,25,17.10
2010,08,14,04,26,17.10
2010,08,14,04,27,17.20
2010,08,14,04,28,17.20
2010,08,14,04,29,17.20
2010,08,14,04,30,17.20
2010,08,14,04,31,17.20
2010,08,14,04,32,17.20
2010,08,14,04,33,17.20
2010,08,14,04,34,17.20
2010,08,14,04,35,17.20
2010,08,14,04,36,17.30
2010,08,14,04,37,17.30
2010,08,14,04,38,17.30
2010,08,14,04,39,17.30
2010,08,14,04,40,17.30
2010,08,14,04,41,17.30
2010,08,14,04,42,17.30
2010,08,14,04,43,17.30
2010,08,14,04,44,17.30
2010,08,14,04,45,17.30
2010,08,14,04,46,17.20
2010,08,14,04,47,17.20
2010,08,14,04,48,17.20
2010,08,14,04,49,17.20
2010,08,14,04,50,17.20
2010,08,14,04,51,17.20
2010,08,14,04,52,17.20
2010,08,14,04,53,17.20
2010,08,14,04,54,17.30
2010,08,14,04,55,17.30
2010,08,14,04,56,17.30
2010,08,14,04,57,17.40
2010,08,14,04,58,17.40
2010,08,14,04,59,17.40
2010,08,14,05,00,17.40
2010,08,14,05,01,17.50
2010,08,14,05,02,17.50
2010,08,14,05,03,17.50
2010,08,14,05,04,17.60
2010,08,14,05,05,17.60
2010,08,14,05,06,17.70
2010,08,14,05,07,17.70
2010,08,14,05,08,17.60
2010,08,14,05,09,17.50
2010,08,14,05,10,17.50
2010,08,14,05,11,17.30
2010,08,14,05,12,17.30
2010,08,14,05,13,17.30
2010,08,14,05,14,17.30
2010,08,14,05,15,17.30
2010,08,14,05,16,17.20
2010,08,14,05,17,17.20
2010,08,14,05,18,17.20
2010,08,14,05,19,17.30
2010,08,14,05,20,17.30
2010,08,14,05,21,17.30
2010,08,14,05,22,17.30
2010,08,14,05,23,17.30
2010,08,14,05,24,17.30
2010,08,14,05,25,17.30
2010,08,14,05,26,17.30
2010,08,14,05,27,17.30
2010,08,14,05,28,17.30
2010,08,14,05,29,17.30
2010,08,14,05,30,17.30
2010,08,14,05,31,17.30
2010,08,14,05,32,17.30
2010,08,14,05,33,17.20
2010,08,14,05,34,17.20
2010,08,14,05,35,17.20
2010,08,14,05,36,17.20
2010,08,14,05,37,17.20
2010,08,14,05,38,17.20
2010,08,14,05,39,17.20
2010,08,14,05,40,17.20
2010,08,14,05,41,17.20
2010,08,14,05,42,17.30
2010,08,14,05,43,17.30
2010,08,14,05,44,17.50
2010,08,14,05,45,17.60
2010,08,14,05,46,17.70
2010,08,14,05,47,17.80
2010,08,14,05,48,17.90
2010,08,14,05,49,18.10
2010,08,14,05,50,18.30
2010,08,14,05,51,18.50
2010,08,14,05,52,18.60
2010,08,14,05,53,18.80
2010,08,14,05,54,18.90
2010,08,14,05,55,19.00
2010,08,14,05,56,19.10
2010,08,14,05,57,19.20
2010,08,14,05,58,19.20
2010,08,14,05,59,19.30
2010,08,14,06,00,19.40
2010,08,14,06,01,19.40
2010,08,14,06,02,19.40
2010,08,14,06,03,19.50
2010,08,14,06,04,19.60
2010,08,14,06,05,19.60
2010,08,14,06,06,19.60
2010,08,14,06,07,19.70
2010,08,14,06,08,19.70
2010,08,14,06,09,19.90
2010,08,14,06,10,19.90
2010,08,14,06,11,19.90
2010,08,14,06,12,19.90
2010,08,14,06,13,19.90
2010,08,14,06,14,19.80
2010,08,14,06,15,19.70
2010,08,14,06,16,19.50
2010,08,14,06,17,19.10
2010,08,14,06,18,18.80
2010,08,14,06,19,18.60
2010,08,14,06,20,18.50
2010,08,14,06,21,18.40
2010,08,14,06,22,18.40
2010,08,14,06,23,18.30
2010,08,14,06,24,18.40
2010,08,14,06,25,18.50
2010,08,14,06,26,18.50
2010,08,14,06,27,18.60
2010,08,14,06,28,18.80
2010,08,14,06,29,18.90
2010,08,14,06,30,19.10
2010,08,14,06,31,19.20
2010,08,14,06,32,19.40
2010,08,14,06,33,19.50
2010,08,14,06,34,19.60
2010,08,14,06,35,19.80
2010,08,14,06,36,19.90
2010,08,14,06,37,20.00
2010,08,14,06,38,20.10
2010,08,14,06,39,20.20
2010,08,14,06,40,20.30
2010,08,14,06,41,20.40
2010,08,14,06,42,20.50
2010,08,14,06,43,20.50
2010,08,14,06,44,20.50
2010,08,14,06,45,20.60
2010,08,14,06,46,20.60
2010,08,14,06,47,20.60
2010,08,14,06,48,20.60
2010,08,14,06,49,20.60
2010,08,14,06,50,20.60
2010,08,14,06,51,20.50
2010,08,14,06,52,20.30
2010,08,14,06,53,19.90
2010,08,14,06,54,19.50
2010,08,14,06,55,19.10
2010,08,14,06,56,18.80
2010,08,14,06,57,18.40
2010,08,14,06,58,18.10
2010,08,14,06,59,17.90
2010,08,14,07,00,17.70
2010,08,14,07,01,17.50
2010,08,14,07,02,17.30
2010,08,14,07,03,17.30
2010,08,14,07,04,17.20
2010,08,14,07,05,17.20
2010,08,14,07,06,17.20
2010,08,14,07,07,17.20
2010,08,14,07,08,17.20
2010,08,14,07,09,17.20
2010,08,14,07,10,17.30
2010,08,14,07,11,17.60
2010,08,14,07,12,17.80
2010,08,14,07,13,18.10
2010,08,14,07,14,18.40
2010,08,14,07,15,18.70
2010,08,14,07,16,19.00
2010,08,14,07,17,19.30
2010,08,14,07,18,19.50
2010,08,14,07,19,19.70
2010,08,14,07,20,19.90
2010,08,14,07,21,20.00
2010,08,14,07,22,20.10
2010,08,14,07,23,20.20
2010,08,14,07,24,20.20
2010,08,14,07,25,20.30
2010,08,14,07,26,20.40
2010,08,14,07,27,20.40
2010,08,14,07,28,20.50
2010,08,14,07,29,20.50
2010,08,14,07,30,20.50
2010,08,14,07,31,20.60
2010,08,14,07,32,20.60
2010,08,14,07,33,20.70
2010,08,14,07,34,20.70
2010,08,14,07,35,20.70
2010,08,14,07,36,20.80
2010,08,14,07,37,20.80
2010,08,14,07,38,20.80
2010,08,14,07,39,20.90
2010,08,14,07,40,20.90
2010,08,14,07,41,20.90
2010,08,14,07,42,20.90
2010,08,14,07,43,20.90
2010,08,14,07,44,21.00
2010,08,14,07,45,21.00
2010,08,14,07,46,21.10
2010,08,14,07,47,21.10
2010,08,14,07,48,21.30
2010,08,14,07,49,21.30
2010,08,14,07,50,21.30
2010,08,14,07,51,21.40
2010,08,14,07,52,21.40
2010,08,14,07,53,21.60
2010,08,14,07,54,21.60
2010,08,14,07,55,21.60
2010,08,14,07,56,21.60
2010,08,14,07,57,21.60
2010,08,14,07,58,21.50
2010,08,14,07,59,21.40
2010,08,14,08,00,21.30
2010,08,14,08,01,21.30
2010,08,14,08,02,21.30
2010,08,14,08,03,21.30
2010,08,14,08,04,21.30
2010,08,14,08,05,21.30
2010,08,14,08,06,21.40
2010,08,14,08,07,21.50
2010,08,14,08,08,21.60
2010,08,14,08,09,21.60
2010,08,14,08,10,21.60
2010,08,14,08,11,21.60
2010,08,14,08,12,21.60
2010,08,14,08,13,21.60
2010,08,14,08,14,21.50
2010,08,14,08,15,21.50
2010,08,14,08,16,21.60
2010,08,14,08,17,21.60
2010,08,14,08,18,21.60
2010,08,14,08,19,21.70
2010,08,14,08,20,21.90
2010,08,14,08,21,22.00
2010,08,14,08,22,22.00
2010,08,14,08,23,22.20
2010,08,14,08,24,22.30
2010,08,14,08,25,22.40
2010,08,14,08,26,22.60
2010,08,14,08,27,22.80
2010,08,14,08,28,22.90
2010,08,14,08,29,22.90
2010,08,14,08,30,22.90
2010,08,14,08,31,22.80
2010,08,14,08,32,22.50
2010,08,14,08,33,22.20
2010,08,14,08,34,22.00
2010,08,14,08,35,21.80
2010,08,14,08,36,21.70
2010,08,14,08,37,21.70
2010,08,14,08,38,21.70
2010,08,14,08,39,21.80
2010,08,14,08,40,21.90
2010,08,14,08,41,22.00
2010,08,14,08,42,22.10
2010,08,14,08,43,22.30
2010,08,14,08,44,22.50
2010,08,14,08,45,22.60
2010,08,14,08,46,22.70
2010,08,14,08,47,22.90
2010,08,14,08,48,23.00
2010,08,14,08,49,23.20
2010,08,14,08,50,23.30
2010,08,14,08,51,23.60
2010,08,14,08,52,23.80
2010,08,14,08,53,24.00
2010,08,14,08,54,24.20
2010,08,14,08,55,24.40
2010,08,14,08,56,24.60
2010,08,14,08,57,24.80
2010,08,14,08,58,25.00
2010,08,14,08,59,25.20
2010,08,14,09,00,25.40
2010,08,14,09,01,25.60
2010,08,14,09,02,25.70
2010,08,14,09,03,25.80
2010,08,14,09,04,25.90
2010,08,14,09,05,26.00
2010,08,14,09,06,26.00
2010,08,14,09,07,26.00
2010,08,14,09,08,26.10
2010,08,14,09,09,26.10
2010,08,14,09,10,26.10
2010,08,14,09,11,26.20
2010,08,14,09,12,26.20
2010,08,14,09,13,26.20
2010,08,14,09,14,26.20
2010,08,14,09,15,26.30
2010,08,14,09,16,26.40
2010,08,14,09,17,26.40
2010,08,14,09,18,26.40
2010,08,14,09,19,26.40
2010,08,14,09,20,26.50
2010,08,14,09,21,26.60
2010,08,14,09,22,26.60
2010,08,14,09,23,26.60
2010,08,14,09,24,26.60
2010,08,14,09,25,26.60
2010,08,14,09,26,26.60
2010,08,14,09,27,26.60
2010,08,14,09,28,26.60
2010,08,14,09,29,26.60
2010,08,14,09,30,26.60
2010,08,14,09,31,26.60
2010,08,14,09,32,26.60
2010,08,14,09,33,26.60
2010,08,14,09,34,26.60
2010,08,14,09,35,26.60
2010,08,14,09,36,26.60
2010,08,14,09,37,26.60
2010,08,14,09,38,26.60
2010,08,14,09,39,26.60
2010,08,14,09,40,26.60
2010,08,14,09,41,26.60
2010,08,14,09,42,26.50
2010,08,14,09,43,26.40
2010,08,14,09,44,26.50
2010,08,14,09,45,26.60
2010,08,14,09,46,26.60
2010,08,14,09,47,26.60
2010,08,14,09,48,26.70
2010,08,14,09,49,26.70
2010,08,14,09,50,26.80
2010,08,14,09,51,26.80
2010,08,14,09,52,26.80
2010,08,14,09,53,26.80
2010,08,14,09,54,26.80
2010,08,14,09,55,26.80
2010,08,14,09,56,26.70
2010,08,14,09,57,26.70
2010,08,14,09,58,26.70
2010,08,14,09,59,26.80
2010,08,14,10,00,26.80
2010,08,14,10,01,26.80
2010,08,14,10,02,26.80
2010,08,14,10,03,26.90
2010,08,14,10,04,26.90
2010,08,14,10,05,27.10
2010,08,14,10,06,27.10
2010,08,14,10,07,27.20
2010,08,14,10,08,27.20
2010,08,14,10,09,27.30
2010,08,14,10,10,27.30
2010,08,14,10,11,27.40
2010,08,14,10,12,27.40
2010,08,14,10,13,27.30
2010,08,14,10,14,27.30
2010,08,14,10,15,27.20
2010,08,14,10,16,27.20
2010,08,14,10,17,27.10
2010,08,14,10,18,27.10
2010,08,14,10,19,27.10
2010,08,14,10,20,27.10
2010,08,14,10,21,27.10
2010,08,14,10,22,27.10
2010,08,14,10,23,27.10
2010,08,14,10,24,27.00
2010,08,14,10,25,26.90
2010,08,14,10,26,26.90
2010,08,14,10,27,26.90
2010,08,14,10,28,27.00
2010,08,14,10,29,27.10
2010,08,14,10,30,27.10
2010,08,14,10,31,27.20
2010,08,14,10,32,27.30
2010,08,14,10,33,27.30
2010,08,14,10,34,27.30
2010,08,14,10,35,27.30
2010,08,14,10,36,27.20
2010,08,14,10,37,27.20
2010,08,14,10,38,27.20
2010,08,14,10,39,27.10
2010,08,14,10,40,27.20
2010,08,14,10,41,27.30
2010,08,14,10,42,27.30
2010,08,14,10,43,27.40
2010,08,14,10,44,27.40
2010,08,14,10,45,27.60
2010,08,14,10,46,27.60
2010,08,14,10,47,27.60
2010,08,14,10,48,27.70
2010,08,14,10,49,27.80
2010,08,14,10,50,27.70
2010,08,14,10,51,27.70
2010,08,14,10,52,27.70
2010,08,14,10,53,27.70
2010,08,14,10,54,27.80
2010,08,14,10,55,27.90
2010,08,14,10,56,27.90
2010,08,14,10,57,27.90
2010,08,14,10,58,27.90
2010,08,14,10,59,27.90
2010,08,14,11,00,27.90
2010,08,14,11,01,27.90
2010,08,14,11,02,27.80
2010,08,14,11,03,27.70
2010,08,14,11,04,27.70
2010,08,14,11,05,27.60
2010,08,14,11,06,27.50
2010,08,14,11,07,27.40
2010,08,14,11,08,27.30
2010,08,14,11,09,27.40
2010,08,14,11,10,27.40
2010,08,14,11,11,27.40
2010,08,14,11,12,27.50
2010,08,14,11,13,27.60
2010,08,14,11,14,27.60
2010,08,14,11,15,27.60
2010,08,14,11,16,27.60
2010,08,14,11,17,27.70
2010,08,14,11,18,27.70
2010,08,14,11,19,27.80
2010,08,14,11,20,27.80
2010,08,14,11,21,27.80
2010,08,14,11,22,27.80
2010,08,14,11,23,27.80
2010,08,14,11,24,27.80
2010,08,14,11,25,27.80
2010,08,14,11,26,27.80
2010,08,14,11,27,27.80
2010,08,14,11,28,27.70
2010,08,14,11,29,27.60
2010,08,14,11,30,27.50
2010,08,14,11,31,27.30
2010,08,14,11,32,27.40
2010,08,14,11,33,27.40
2010,08,14,11,34,27.30
2010,08,14,11,35,27.40
2010,08,14,11,36,27.40
2010,08,14,11,37,27.50
2010,08,14,11,38,27.60
2010,08,14,11,39,27.70
2010,08,14,11,40,27.80
2010,08,14,11,41,27.90
2010,08,14,11,42,27.90
2010,08,14,11,43,27.80
2010,08,14,11,44,27.80
2010,08,14,11,45,27.80
2010,08,14,11,46,27.80
2010,08,14,11,47,27.80
2010,08,14,11,48,27.80
2010,08,14,11,49,27.90
2010,08,14,11,50,28.00
2010,08,14,11,51,28.10
2010,08,14,11,52,28.20
2010,08,14,11,53,28.20
2010,08,14,11,54,28.20
2010,08,14,11,55,28.10
2010,08,14,11,56,28.10
2010,08,14,11,57,28.10
2010,08,14,11,58,28.10
2010,08,14,11,59,28.10
2010,08,14,12,00,28.10
2010,08,14,12,01,28.10
2010,08,14,12,02,28.10
2010,08,14,12,03,28.10
2010,08,14,12,04,28.10
2010,08,14,12,05,28.10
2010,08,14,12,06,28.10
2010,08,14,12,07,28.10
2010,08,14,12,08,28.00
2010,08,14,12,09,27.90
2010,08,14,12,10,28.00
2010,08,14,12,11,28.00
2010,08,14,12,12,28.10
2010,08,14,12,13,28.20
2010,08,14,12,14,28.30
2010,08,14,12,15,28.30
2010,08,14,12,16,28.40
2010,08,14,12,17,28.40
2010,08,14,12,18,28.50
2010,08,14,12,19,28.50
2010,08,14,12,20,28.40
2010,08,14,12,21,28.40
2010,08,14,12,22,28.40
2010,08,14,12,23,28.40
2010,08,14,12,24,28.60
2010,08,14,12,25,28.70
2010,08,14,12,26,28.70
2010,08,14,12,27,28.80
2010,08,14,12,28,28.90
2010,08,14,12,29,28.90
2010,08,14,12,30,28.90
2010,08,14,12,31,28.90
2010,08,14,12,32,28.80
2010,08,14,12,33,28.80
2010,08,14,12,34,28.80
2010,08,14,12,35,28.90
2010,08,14,12,36,29.00
2010,08,14,12,37,29.10
2010,08,14,12,38,29.10
2010,08,14,12,39,29.20
2010,08,14,12,40,29.20
2010,08,14,12,41,29.10
2010,08,14,12,42,29.00
2010,08,14,12,43,28.90
2010,08,14,12,44,28.80
2010,08,14,12,45,28.80
2010,08,14,12,46,28.80
2010,08,14,12,47,28.80
2010,08,14,12,48,28.80
2010,08,14,12,49,28.80
2010,08,14,12,50,28.80
2010,08,14,12,51,28.90
2010,08,14,12,52,28.90
2010,08,14,12,53,28.90
2010,08,14,12,54,28.90
2010,08,14,12,55,28.90
2010,08,14,12,56,28.80
2010,08,14,12,57,28.80
2010,08,14,12,58,28.90
2010,08,14,12,59,28.90
2010,08,14,13,00,28.90
2010,08,14,13,01,28.90
2010,08,14,13,02,28.90
2010,08,14,13,03,28.90
2010,08,14,13,04,28.90
2010,08,14,13,05,28.90
2010,08,14,13,06,28.90
2010,08,14,13,07,28.90
2010,08,14,13,08,28.90
2010,08,14,13,09,29.00
2010,08,14,13,10,29.10
2010,08,14,13,11,29.20
2010,08,14,13,12,29.20
2010,08,14,13,13,29.30
2010,08,14,13,14,29.30
2010,08,14,13,15,29.30
2010,08,14,13,16,29.40
2010,08,14,13,17,29.40
2010,08,14,13,18,29.40
2010,08,14,13,19,29.50
2010,08,14,13,20,29.60
2010,08,14,13,21,29.70
2010,08,14,13,22,29.70
2010,08,14,13,23,29.80
2010,08,14,13,24,29.90
2010,08,14,13,25,29.90
2010,08,14,13,26,29.90
2010,08,14,13,27,29.80
2010,08,14,13,28,29.80
2010,08,14,13,29,29.90
2010,08,14,13,30,30.00
2010,08,14,13,31,30.10
2010,08,14,13,32,30.20
2010,08,14,13,33,30.40
2010,08,14,13,34,30.50
2010,08,14,13,35,30.60
2010,08,14,13,36,30.70
2010,08,14,13,37,30.70
2010,08,14,13,38,30.90
2010,08,14,13,39,30.90
2010,08,14,13,40,31.00
2010,08,14,13,41,31.10
2010,08,14,13,42,31.10
2010,08,14,13,43,31.20
2010,08,14,13,44,31.20
2010,08,14,13,45,31.20
2010,08,14,13,46,31.30
2010,08,14,13,47,31.30
2010,08,14,13,48,31.30
2010,08,14,13,49,31.30
2010,08,14,13,50,31.20
2010,08,14,13,51,31.00
2010,08,14,13,52,31.00
2010,08,14,13,53,31.00
2010,08,14,13,54,31.10
2010,08,14,13,55,31.10
2010,08,14,13,56,31.00
2010,08,14,13,57,30.80
2010,08,14,13,58,30.80
2010,08,14,13,59,30.80
2010,08,14,14,00,30.90
2010,08,14,14,01,31.00
2010,08,14,14,02,31.10
2010,08,14,14,03,31.10
2010,08,14,14,04,31.20
2010,08,14,14,05,31.30
2010,08,14,14,06,31.30
2010,08,14,14,07,31.20
2010,08,14,14,08,31.10
2010,08,14,14,09,31.00
2010,08,14,14,10,30.90
2010,08,14,14,11,30.90
2010,08,14,14,12,30.80
2010,08,14,14,13,30.80
2010,08,14,14,14,30.80
2010,08,14,14,15,30.80
2010,08,14,14,16,30.80
2010,08,14,14,17,30.90
2010,08,14,14,18,31.00
2010,08,14,14,19,31.10
2010,08,14,14,20,31.20
2010,08,14,14,21,31.30
2010,08,14,14,22,31.50
2010,08,14,14,23,31.60
2010,08,14,14,24,31.70
2010,08,14,14,25,31.80
2010,08,14,14,26,31.90
2010,08,14,14,27,31.90
2010,08,14,14,28,31.90
2010,08,14,14,29,31.90
2010,08,14,14,30,31.90
2010,08,14,14,31,31.90
2010,08,14,14,32,31.90
2010,08,14,14,33,32.00
2010,08,14,14,34,32.10
2010,08,14,14,35,32.10
2010,08,14,14,36,32.20
2010,08,14,14,37,32.20
2010,08,14,14,38,32.20
2010,08,14,14,39,32.20
2010,08,14,14,40,32.00
2010,08,14,14,41,31.80
2010,08,14,14,42,31.60
2010,08,14,14,43,31.50
2010,08,14,14,44,31.60
2010,08,14,14,45,31.60
2010,08,14,14,46,31.80
2010,08,14,14,47,31.80
2010,08,14,14,48,31.80
2010,08,14,14,49,31.90
2010,08,14,14,50,31.90
2010,08,14,14,51,31.90
2010,08,14,14,52,31.90
2010,08,14,14,53,31.70
2010,08,14,14,54,31.50
2010,08,14,14,55,31.30
2010,08,14,14,56,31.20
2010,08,14,14,57,31.20
2010,08,14,14,58,31.30
2010,08,14,14,59,31.40
2010,08,14,15,00,31.50
2010,08,14,15,01,31.70
2010,08,14,15,02,31.90
2010,08,14,15,03,32.00
2010,08,14,15,04,32.10
2010,08,14,15,05,32.20
2010,08,14,15,06,32.30
2010,08,14,15,07,32.40
2010,08,14,15,08,32.40
2010,08,14,15,09,32.40
2010,08,14,15,10,32.30
2010,08,14,15,11,32.20
2010,08,14,15,12,32.10
2010,08,14,15,13,32.10
2010,08,14,15,14,31.90
2010,08,14,15,15,31.90
2010,08,14,15,16,31.80
2010,08,14,15,17,31.90
2010,08,14,15,18,32.00
2010,08,14,15,19,32.20
2010,08,14,15,20,32.30
2010,08,14,15,21,32.30
2010,08,14,15,22,32.40
2010,08,14,15,23,32.50
2010,08,14,15,24,32.60
2010,08,14,15,25,32.60
2010,08,14,15,26,32.60
2010,08,14,15,27,32.60
2010,08,14,15,28,32.60
2010,08,14,15,29,32.70
2010,08,14,15,30,32.50
2010,08,14,15,31,32.50
2010,08,14,15,32,32.30
2010,08,14,15,33,32.00
2010,08,14,15,34,31.60
2010,08,14,15,35,31.30
2010,08,14,15,36,31.20
2010,08,14,15,37,31.00
2010,08,14,15,38,30.90
2010,08,14,15,39,30.90
2010,08,14,15,40,30.90
2010,08,14,15,41,30.90
2010,08,14,15,42,31.00
2010,08,14,15,43,30.90
2010,08,14,15,44,30.90
2010,08,14,15,45,30.90
2010,08,14,15,46,30.90
2010,08,14,15,47,30.90
2010,08,14,15,48,30.80
2010,08,14,15,49,30.70
2010,08,14,15,50,30.60
2010,08,14,15,51,30.60
2010,08,14,15,52,30.60
2010,08,14,15,53,30.60
2010,08,14,15,54,30.60
2010,08,14,15,55,30.70
2010,08,14,15,56,30.80
2010,08,14,15,57,30.80
2010,08,14,15,58,31.00
2010,08,14,15,59,31.10
2010,08,14,16,00,31.40
2010,08,14,16,01,31.50
2010,08,14,16,02,31.80
2010,08,14,16,03,32.00
2010,08,14,16,04,32.10
2010,08,14,16,05,32.20
2010,08,14,16,06,32.20
2010,08,14,16,07,32.40
2010,08,14,16,08,32.40
2010,08,14,16,09,32.30
2010,08,14,16,10,32.20
2010,08,14,16,11,32.20
2010,08,14,16,12,32.20
2010,08,14,16,13,32.20
2010,08,14,16,14,32.20
2010,08,14,16,15,32.30
2010,08,14,16,16,32.30
2010,08,14,16,17,32.40
2010,08,14,16,18,32.50
2010,08,14,16,19,32.60
2010,08,14,16,20,32.80
2010,08,14,16,21,32.90
2010,08,14,16,22,33.00
2010,08,14,16,23,33.00
2010,08,14,16,24,33.10
2010,08,14,16,25,33.20
2010,08,14,16,26,33.30
2010,08,14,16,27,33.40
2010,08,14,16,28,33.40
2010,08,14,16,29,33.20
2010,08,14,16,30,33.10
2010,08,14,16,31,33.00
2010,08,14,16,32,32.90
2010,08,14,16,33,32.90
2010,08,14,16,34,32.70
2010,08,14,16,35,32.40
2010,08,14,16,36,32.10
2010,08,14,16,37,31.80
2010,08,14,16,38,31.50
2010,08,14,16,39,31.30
2010,08,14,16,40,31.20
2010,08,14,16,41,31.00
2010,08,14,16,42,31.00
2010,08,14,16,43,31.00
2010,08,14,16,44,31.00
2010,08,14,16,45,31.10
2010,08,14,16,46,31.20
2010,08,14,16,47,31.30
2010,08,14,16,48,31.40
2010,08,14,16,49,31.60
2010,08,14,16,50,31.70
2010,08,14,16,51,31.90
2010,08,14,16,52,31.90
2010,08,14,16,53,31.90
2010,08,14,16,54,31.90
2010,08,14,16,55,32.00
2010,08,14,16,56,32.10
2010,08,14,16,57,32.10
2010,08,14,16,58,32.10
2010,08,14,16,59,32.10
2010,08,14,17,00,32.20
2010,08,14,17,01,32.30
2010,08,14,17,02,32.30
2010,08,14,17,03,32.30
2010,08,14,17,04,32.40
2010,08,14,17,05,32.40
2010,08,14,17,06,32.40
2010,08,14,17,07,32.50
2010,08,14,17,08,32.50
2010,08,14,17,09,32.50
2010,08,14,17,10,32.50
2010,08,14,17,11,32.50
2010,08,14,17,12,32.50
2010,08,14,17,13,32.50
2010,08,14,17,14,32.40
2010,08,14,17,15,32.40
2010,08,14,17,16,32.30
2010,08,14,17,17,32.30
2010,08,14,17,18,32.30
2010,08,14,17,19,32.30